Wind_Speed
39 41 42 41 43 43 44 44 43 39 37 33 33 35 39 35 36 36 31 29 26 24 23 21 22 22 18 20 23 30 26 31 30 27 23 22 26 30 39 40 34 23 24
30 32 31 27 32 31 34 36 39 40 40 37 35 34 39 37 36 36 32 29 26 24 23 22 25 27 23 18 19 26 32 30 24 22 21 24 25 25 25 28 26 24 23
24 22 24 21 26 32 35 35 35 37 38 38 35 34 34 37 36 36 31 29 27 25 24 24 25 26 27 25 22 23 30 28 27 26 26 30 31 31 30 29 32 24 24
21 22 23 22 20 20 26 31 31 33 35 34 34 32 29 34 36 36 32 30 28 25 24 26 27 30 28 28 26 26 27 31 31 35 32 33 33 34 36 35 34 34 30
19 25 24 17 20 20 21 24 27 28 31 31 33 33 31 34 39 37 33 30 29 25 24 24 25 29 27 26 31 31 30 31 30 33 34 34 39 32 35 32 33 32 36
16 16 25 30 30 28 25 29 30 29 29 33 36 41 39 34 39 37 32 29 27 26 25 25 26 30 30 33 34 32 38 37 35 30 31 33 28 35 34 34 30 29 35
11 11 18 24 23 30 22 27 32 35 39 39 38 37 33 34 34 34 28 24 24 26 27 28 27 28 28 34 36 37 40 39 42 39 39 40 40 39 39 37 38 39 40
19 17 11 8 14 22 24 25 26 35 40 38 35 33 38 36 30 33 29 24 25 24 28 32 30 27 32 32 32 31 34 31 31 33 33 32 32 30 34 35 29 25 28
21 16 15 16 15 11 23 21 24 33 31 35 42 31 28 33 33 34 32 33 38 43 34 32 33 32 33 31 32 35 33 32 32 31 31 29 27 28 31 27 25 27 28
16 19 21 20 18 14 14 12 15 21 32 37 43 42 41 37 36 34 33 35 38 42 42 41 37 37 34 33 32 33 33 32 31 29 31 30 29 28 28 31 33 36 36
18 17 16 15 14 17 16 13 12 13 8 10 21 28 36 37 33 33 32 33 37 36 41 41 43 40 36 33 31 32 32 33 31 30 29 36 38 38 34 37 41 40 44
17 17 17 16 16 13 11 12 13 11 10 10 8 11 16 24 28 35 43 43 43 42 43 36 38 42 41 36 34 34 31 34 37 41 44 44 43 41 42 46 50 45 43
17 17 16 17 16 15 14 12 8 8 10 10 9 9 8 10 11 10 12 13 21 34 43 39 36 45 45 40 38 36 33 39 43 37 41 42 45 47 45 45 40 38 38
19 19 19 17 17 17 16 14 13 12 11 11 11 8 7 5 7 8 6 7 10 6 6 14 21 17 21 25 31 40 43 54 55 47 43 42 37 32 25 25 26 27 27
21 20 21 21 20 19 19 18 16 15 14 14 13 12 13 12 9 6 6 6 7 8 9 9 10 13 14 11 11 11 14 15 18 20 20 21 22 22 21 22 23 24 25
22 23 23 23 23 22 21 21 19 18 17 16 16 16 16 16 17 18 17 15 13 11 11 10 10 11 12 13 15 19 18 15 15 17 18 20 22 25 25 26 28 29 28
26 25 24 24 25 25 24 23 22 21 21 19 18 18 18 18 18 18 18 20 22 22 22 22 22 22 20 18 19 20 19 19 20 22 24 23 23 24 25 27 28 27 27
30 30 30 28 26 26 27 26 24 23 24 23 22 20 20 21 20 19 19 19 18 19 20 20 21 22 23 24 26 26 26 26 27 27 27 27 26 26 25 25 25 25 26
32 32 32 31 29 28 26 26 26 24 24 24 24 23 22 21 21 21 21 21 20 20 20 20 19 19 20 21 22 22 22 21 22 22 22 22 23 23 24 24 24 24 25
33 32 32 32 30 29 27 26 26 26 25 24 24 24 24 23 22 22 22 22 22 21 21 20 20 20 21 21 21 21 21 21 21 21 21 22 22 23 23 24 24 25 25
35 33 31 30 30 28 27 25 24 24 24 24 24 23 23 24 23 23 23 23 22 22 22 22 22 22 22 22 22 22 22 22 22 21 21 21 22 22 23 24 25 25 25
33 32 30 28 26 26 26 25 23 22 22 22 23 23 23 23 23 23 23 23 23 23 23 23 22 23 23 23 22 22 22 22 22 21 22 22 22 23 24 24 25 26 27
29 29 28 27 26 25 24 24 23 22 21 20 21 21 21 22 22 22 22 22 21 22 22 22 22 22 22 22 22 22 22 22 22 22 22 23 23 24 24 25 25 26 26
27 26 26 26 25 24 24 24 24 23 21 20 19 19 20 20 20 20 20 20 19 19 19 19 20 20 20 21 21 21 22 22 22 23 23 23 24 24 24 24 24 25 25
26 25 24 24 25 25 25 24 24 25 24 22 19 18 19 19 19 19 19 19 19 20 20 20 21 21 20 20 21 21 22 22 23 23 24 24 24 24 24 24 24 24 24
24 24 23 23 23 23 23 24 23 24 24 24 23 21 19 19 19 19 19 18 19 19 19 19 20 20 21 21 21 22 22 22 22 22 22 22 22 23 22 22 22 22 22
Wind_Direction
259 257 258 259 255 250 249 248 249 249 243 247 255 252 247 249 247 244 253 262 270 268 260 247 243 250 250 244 229 235 243 238 246 249 231 221 221 227 229 235 237 241 251
270 265 263 259 247 246 247 244 244 242 240 242 250 255 246 243 246 240 249 258 264 262 257 250 245 243 247 247 243 239 230 252 248 221 232 229 229 225 228 241 247 255 264
268 263 267 262 250 250 250 254 250 243 238 242 250 255 247 239 244 239 246 254 260 258 254 251 247 240 243 237 250 234 243 245 247 240 232 232 240 240 243 252 253 252 245
258 261 262 261 264 253 253 252 250 243 239 243 251 249 244 238 240 237 244 251 256 257 256 252 245 243 237 253 240 243 249 250 249 248 255 254 249 243 250 251 261 262 256
260 251 251 255 256 258 255 248 244 243 243 248 250 236 231 230 237 236 243 249 254 255 254 252 247 242 237 246 241 249 254 250 251 248 255 255 255 253 257 262 260 253 253
272 273 250 252 266 260 250 261 250 244 246 246 252 226 221 232 233 232 239 248 254 256 252 251 249 242 241 233 240 240 243 246 251 246 242 246 251 252 255 257 264 257 246
348 297 283 259 266 251 267 251 251 252 254 250 246 230 238 245 232 230 234 243 255 262 260 255 251 247 237 240 238 243 245 248 239 247 245 251 248 253 250 256 255 252 249
9 11 5 285 258 275 250 257 262 253 248 249 230 227 230 255 239 223 228 237 255 263 265 262 252 245 242 247 239 235 246 247 247 248 250 254 251 241 243 244 248 244 244
23 28 28 30 23 294 257 260 247 243 245 226 232 225 229 247 233 229 235 243 247 260 262 260 255 250 248 245 245 243 241 241 243 246 248 250 249 247 249 251 247 252 250
6 17 25 29 28 19 18 351 294 262 244 249 238 243 243 233 227 230 239 245 245 243 257 249 250 248 246 247 247 247 243 245 250 251 253 256 259 259 252 241 242 243 246
7 9 7 6 15 30 30 22 15 355 317 279 254 224 226 233 231 232 243 247 247 250 257 255 248 245 250 246 250 251 255 256 255 255 248 259 262 262 263 248 248 253 251
358 358 358 358 359 3 4 15 16 14 18 0 341 295 271 258 248 238 229 234 237 237 239 239 241 248 238 234 230 231 238 238 246 258 255 261 261 261 255 260 259 261 254
349 349 347 347 349 349 347 346 341 334 345 4 11 359 329 293 283 287 278 241 235 235 233 238 238 233 240 244 244 241 241 245 255 257 258 260 259 258 253 251 250 254 255
337 336 336 335 335 336 336 335 332 327 319 310 321 341 357 351 317 301 284 274 271 288 251 234 243 244 241 246 245 243 253 257 253 254 248 255 253 251 252 254 262 268 267
328 327 325 324 323 322 321 322 322 319 314 309 301 291 281 285 289 278 272 281 278 274 271 277 274 276 272 259 246 248 243 240 233 237 242 246 251 256 261 262 260 258 259
321 319 319 318 315 313 311 308 307 307 304 301 298 296 291 282 270 265 266 270 268 266 269 275 277 271 268 264 262 257 262 264 254 250 249 252 257 257 258 263 266 268 267
317 315 310 307 307 307 303 300 298 295 294 292 288 284 281 278 274 273 268 264 262 260 259 257 258 261 268 268 268 266 263 261 260 260 262 266 268 267 265 264 266 268 268
311 308 306 305 301 297 298 299 297 293 289 287 285 282 279 277 277 273 269 266 264 263 263 260 258 257 256 254 254 254 255 256 257 257 259 260 260 261 262 261 261 261 263
308 305 303 301 300 297 293 290 291 292 289 285 282 280 278 277 272 271 272 270 269 266 264 262 261 259 256 253 252 252 253 254 254 255 256 257 258 259 259 259 260 261 264
308 305 302 299 297 297 296 292 288 286 285 283 280 278 276 274 273 271 269 268 267 266 266 264 263 261 261 260 260 259 259 259 259 259 259 260 262 264 266 268 270 270 271
312 310 307 303 299 298 298 297 292 288 285 283 282 279 276 273 271 270 270 269 267 266 266 265 264 263 262 261 262 262 263 263 263 264 264 265 266 267 268 269 271 273 273
311 310 309 307 303 300 300 300 299 293 289 287 285 283 281 278 276 274 272 271 271 270 268 266 265 264 264 264 263 263 263 264 265 265 266 267 268 269 270 271 273 275 277
310 308 306 305 303 301 301 302 302 301 297 291 287 286 284 283 281 279 276 275 273 271 269 268 267 267 266 265 265 265 265 266 266 267 267 268 269 270 271 273 275 276 277
309 307 305 303 301 299 298 298 299 301 301 300 295 290 287 284 282 280 278 275 273 272 271 270 269 267 266 268 269 270 269 269 269 270 270 271 272 273 274 274 274 275 276
309 307 305 302 300 299 297 294 293 294 296 297 297 294 290 285 282 280 278 275 272 270 270 270 270 269 267 266 266 267 268 269 270 270 270 270 270 270 271 272 272 273 275
309 308 306 305 302 300 298 296 294 292 293 294 296 294 288 283 282 282 282 281 279 277 275 273 271 271 271 270 269 269 268 268 268 269 270 271 272 272 274 274 275 276 276
Height
2998 3000 3001 3003 3007 3012 3015 3020 3022 3026 3030 3031 3033 3035 3037 3039 3041 3044 3045 3045 3044 3043 3043 3043 3045 3047 3049 3050 3051 3053 3055 3058 3062 3065 3068 3071 3073 3077 3082 3084 3087 3088 3090
2990 2990 2993 2995 2998 3002 3006 3008 3010 3014 3018 3021 3023 3026 3028 3031 3033 3036 3037 3038 3037 3037 3037 3037 3040 3042 3043 3045 3047 3049 3051 3054 3057 3060 3064 3067 3069 3072 3075 3077 3079 3081 3082
2984 2984 2985 2987 2991 2993 2997 2999 3002 3005 3008 3011 3014 3016 3018 3021 3024 3027 3030 3030 3030 3030 3031 3031 3033 3036 3037 3039 3041 3044 3047 3049 3052 3054 3059 3060 3062 3065 3067 3070 3072 3073 3075
2979 2980 2980 2982 2984 2986 2989 2990 2993 2997 3000 3003 3005 3007 3009 3013 3016 3019 3022 3023 3023 3023 3024 3026 3027 3029 3032 3034 3037 3039 3042 3043 3045 3047 3049 3051 3054 3057 3059 3062 3063 3065 3067
2974 2975 2976 2976 2978 2980 2982 2984 2987 2988 2992 2994 2996 2997 2999 3003 3007 3011 3014 3015 3017 3017 3017 3019 3020 3023 3027 3028 3031 3032 3034 3036 3038 3040 3041 3043 3046 3048 3050 3053 3054 3056 3057
2969 2970 2971 2972 2972 2974 2977 2978 2980 2982 2984 2985 2985 2983 2989 2993 2998 3001 3005 3008 3010 3011 3011 3012 3013 3016 3018 3022 3024 3026 3028 3029 3031 3033 3035 3036 3038 3042 3044 3046 3047 3048 3049
2968 2966 2965 2965 2966 2968 2970 2971 2973 2974 2975 2976 2976 2976 2982 2986 2990 2993 2997 2999 3002 3003 3005 3006 3006 3008 3010 3013 3015 3017 3018 3020 3023 3026 3028 3029 3032 3034 3037 3037 3038 3039 3041
2968 2965 2962 2961 2961 2963 2963 2965 2965 2966 2964 2967 2963 2972 2977 2980 2984 2985 2987 2990 2994 2997 2999 3001 3001 3002 3005 3006 3008 3010 3012 3014 3016 3018 3020 3022 3023 3025 3027 3029 3031 3032 3033
2972 2968 2964 2961 2959 2958 2959 2959 2960 2960 2960 2959 2958 2964 2966 2973 2976 2978 2979 2981 2984 2989 2991 2993 2994 2995 2997 2999 3001 3003 3004 3006 3009 3011 3013 3015 3017 3019 3021 3022 3024 3025 3026
2974 2971 2968 2964 2961 2959 2957 2956 2955 2955 2955 2958 2961 2959 2960 2959 2966 2969 2971 2973 2976 2977 2981 2982 2985 2987 2989 2991 2993 2994 2997 2999 3000 3002 3004 3006 3008 3011 3013 3014 3016 3017 3017
2976 2974 2971 2970 2967 2964 2960 2957 2956 2955 2952 2951 2951 2944 2952 2953 2953 2959 2962 2964 2966 2967 2969 2971 2972 2977 2979 2982 2985 2987 2988 2990 2992 2994 2996 2998 3000 3002 3004 3005 3005 3004 3005
2978 2975 2973 2970 2968 2965 2964 2961 2959 2956 2955 2953 2949 2946 2946 2948 2948 2948 2950 2954 2955 2958 2960 2961 2963 2964 2969 2973 2975 2977 2978 2981 2982 2984 2987 2988 2990 2992 2992 2993 2992 2992 2991
2978 2976 2973 2971 2968 2966 2964 2962 2960 2958 2956 2952 2950 2946 2944 2946 2948 2947 2944 2945 2945 2947 2949 2951 2952 2955 2956 2957 2960 2963 2967 2968 2970 2972 2974 2975 2977 2978 2978 2978 2978 2979 2979
2977 2974 2972 2970 2967 2965 2962 2961 2959 2957 2954 2952 2952 2949 2947 2947 2946 2944 2944 2943 2944 2944 2942 2942 2945 2946 2947 2949 2950 2950 2953 2956 2958 2960 2961 2961 2964 2966 2966 2967 2969 2971 2973
2976 2974 2971 2968 2966 2963 2961 2958 2956 2955 2953 2952 2950 2949 2949 2947 2945 2944 2945 2944 2941 2942 2941 2941 2941 2942 2943 2943 2944 2945 2948 2948 2948 2951 2952 2951 2954 2956 2958 2960 2962 2964 2966
2975 2972 2969 2966 2964 2961 2959 2957 2955 2953 2951 2949 2947 2945 2944 2943 2943 2942 2941 2940 2939 2939 2939 2939 2938 2939 2939 2940 2940 2942 2943 2944 2944 2944 2945 2947 2948 2949 2950 2952 2954 2956 2957
2972 2969 2966 2964 2961 2958 2956 2954 2952 2949 2947 2945 2944 2942 2942 2941 2939 2938 2936 2934 2934 2934 2934 2934 2934 2934 2935 2935 2936 2938 2938 2938 2937 2938 2938 2939 2939 2941 2941 2944 2945 2946 2948
2967 2964 2961 2958 2956 2953 2949 2946 2944 2942 2941 2940 2938 2938 2936 2935 2933 2932 2932 2930 2929 2928 2928 2926 2927 2928 2928 2930 2930 2930 2931 2931 2931 2931 2932 2933 2933 2934 2935 2935 2936 2937 2938
2961 2957 2954 2951 2948 2946 2943 2941 2939 2937 2934 2933 2931 2930 2929 2927 2926 2926 2925 2924 2923 2923 2922 2921 2922 2922 2923 2923 2923 2924 2924 2925 2925 2925 2925 2926 2927 2928 2928 2929 2929 2929 2929
2954 2950 2947 2943 2941 2938 2935 2933 2931 2930 2928 2926 2925 2923 2922 2921 2919 2918 2918 2917 2917 2917 2916 2916 2916 2917 2917 2917 2917 2917 2917 2919 2920 2919 2919 2920 2919 2921 2921 2920 2921 2921 2921
2947 2944 2940 2937 2933 2931 2928 2926 2924 2922 2920 2919 2918 2916 2915 2914 2913 2912 2911 2911 2910 2910 2910 2910 2910 2911 2911 2910 2911 2910 2910 2911 2913 2912 2913 2913 2913 2913 2913 2913 2913 2913 2913
2941 2937 2934 2930 2927 2925 2922 2920 2918 2916 2914 2912 2911 2909 2908 2907 2907 2906 2905 2905 2904 2904 2904 2903 2903 2903 2904 2904 2903 2904 2904 2904 2905 2905 2906 2906 2906 2906 2906 2906 2906 2906 2905
2935 2931 2928 2925 2922 2919 2917 2914 2912 2910 2908 2906 2905 2903 2902 2901 2900 2899 2899 2898 2897 2897 2897 2896 2896 2897 2897 2897 2897 2898 2898 2898 2898 2899 2899 2898 2899 2900 2900 2900 2899 2899 2899
2930 2927 2923 2919 2916 2914 2911 2909 2906 2904 2902 2900 2898 2897 2896 2895 2894 2893 2893 2892 2892 2891 2891 2891 2890 2891 2891 2891 2892 2892 2892 2892 2893 2892 2892 2892 2893 2893 2893 2892 2892 2892 2891
2924 2920 2917 2914 2911 2908 2905 2903 2900 2898 2896 2895 2893 2892 2890 2889 2889 2887 2887 2886 2886 2886 2886 2885 2884 2885 2885 2886 2886 2886 2886 2887 2887 2886 2886 2886 2886 2886 2886 2887 2887 2886 2885
2918 2915 2912 2909 2905 2903 2900 2897 2895 2893 2891 2889 2887 2886 2885 2884 2883 2883 2882 2881 2881 2880 2880 2879 2879 2879 2879 2880 2880 2880 2880 2880 2879 2879 2879 2879 2879 2879 2880 2880 2879 2879 2878